Weather in Kamennaya

Ukraine / Chernovtci District     48°13′24″N   25°51′20″E
temp.,
°C
wind,
m/s
gust,
m/s
humid.,
%
clouds,
%
prec.,
mm/h
press.,
hPa
HPBL,
m
12 august, fri
fri1200:00+14w22800 0.0 102022
03:00+12wnw22897 0.0 102119
06:00+13wnw248698 0.0 102091
09:00+18wnw46675 0.0 1020395
12:00+19nw477695 0.3 1019455
15:00+23nnw456496 0.5 10181148
18:00+20nne268587 3.6 1018307
21:00+17nw229595 3.8 101835
13 august, sat
sat1300:00+17wnw229585 0.0 101728
03:00+15wnw229641 0.0 101729
06:00+14wnw239796 0.0 101648
09:00+16wnw3695100 0.0 1015267
12:00+19nw4685100 0.0 1014537
15:00+24nnw456448 0.0 10121081
18:00+24nnw3469100 1.6 1011965
21:00+19wnw3388100 5.3 101150
14 august, sun
sun1400:00+17wnw3596100 2.8 1011121
03:00+17wnw4997100 3.7 1010254
06:00+17wnw3899100 0.1 1010337
09:00+18nw6893100 0.1 1010492
12:00+20nw5684100 0.1 1010646
15:00+24nw4465100 0.1 10091098
18:00+25n3460100 0.0 10081128
21:00+20s1182100 1.8 100814
15 august, mon
mon1500:00+18sw0191100 3.9 100811
03:00+17wsw119199 3.9 100811
06:00+16w1191100 0.0 100711
09:00+19wnw1282100 0.0 1007177
12:00+24wnw2261100 0.0 1007627
15:00+27n1150100 0.0 10061253
18:00+27ssw115041 0.1 10071198
21:00+18sw227250 0.7 100725
16 august, tue
tue1600:00+18sw117883 0.0 100811
03:00+17wnw22845 0.0 100712
06:00+16sw11875 0.0 100711
09:00+22wsw116515 0.0 1008183
12:00+26w224858 0.0 1008643
15:00+30ne243715 0.0 10071932
18:00+26se355420 0.1 1007156
21:00+19s22865 2.0 101027